sat.trackr.live / text

‹ back to catalog

STARLINK-32086

NORAD 59703 · 2024-086X

PAYLOAD ACTIVE UNKNOWN

§ Identity

Operator
Country
US
Launch date
2024-05-08
Launch site
AFETR
Launch vehicle
Mass (kg)
RCS (m²)

Purposes: comms

External: N2YO · Heavens-Above · Gunter

§ Orbital elements

Epoch: 2026-09-21T20:01:40.842336Z

Period
94.27 min
Inclination
43.0013°
Eccentricity
0.0001329
Mean motion
15.27579260 rev/d
Perigee alt
482.1 km
Apogee alt
484.0 km
Semi-major
6,861.2 km
B*
3.0555e-5
RAAN
31.8570°
Arg perigee
268.0106°
Mean anomaly
92.0593°
Rev number
13,411

§ Raw data

STARLINK-320861 59703U 24086X   26264.83450049  .00000579  00000+0  30555-4 0  99992 59703  43.0013  31.8570 0001329 268.0106  92.0593 15.27579260134111

JSON: /api/v1/satellites/59703 · /tle

For live sub-satellite position, see the globe view (requires WebGL).

§ Visibility from observer

Set your observer location to see the next 7 days of passes ≥ 10°. The values pass through the URL so the page stays shareable.

No JS? Fill the form by hand. The geolocation button needs JavaScript.